Regional Weather Roundup
Issued by NWS

Home | Current Version | Previous Version | Text Only | Print | Product List | Glossary Off
Versions: 1 2 3 4 5 6 7 8 9 10 11 12 13 14 15 16 17 18 19 20 21 22 23 24 25 26 27

000
ASUS45 KBOU 160707
RWRCO

WEATHER ROUNDUP FOR COLORADO
NATIONAL WEATHER SERVICE DENVER/BOULDER CO
1200 AM MST MON JAN 16 2017

NOTE: "FAIR" INDICATES FEW OR NO CLOUDS BELOW 12000 FEET WITH NO
SIGNIFICANT WEATHER AND/OR OBSTRUCTIONS TO VISIBILITY.

COZ001>005-013-030-031-160800-
...NORTHWEST COLORADO...

CITY           SKY/WX    TMP DP  RH WIND       PRES   REMARKS
CRAIG          CLOUDY    19  15  84 W5        30.06S WCI  12
HAYDEN         CLOUDY    19  16  86 W6        30.03R VSB 1/2 WCI  11
MEEKER         CLOUDY    23  19  85 CALM      30.03R
MOUNT WERNER   NOT AVBL
STEAMBOAT SPGS CLOUDY    21  19  95 S5        30.01R VSB 1/2 WCI  14
WALDEN           N/A    N/A N/A N/A CALM      29.98S
$$

COZ006>008-011-160800-
...WEST CENTRAL VALLEYS...

CITY           SKY/WX    TMP DP  RH WIND       PRES   REMARKS
GRAND JUNCTION FAIR      35  27  72 N9        29.97R WCI  28
MONTROSE       MIX PCPN  35  32  88 NW5       29.96S WCI  31
EAGLE          CLOUDY    28  25  88 CALM      29.96F
RIFLE          CLOUDY    32  25  75 W7        29.97F WCI  26
DELTA          CLOUDY    38  32  79 CALM      29.95S
NUCLA          CLOUDY    34  32  93 NW5       29.97S WCI  30
$$

COZ017>023-064>068-160800-
...SOUTHWEST COLORADO...

CITY           SKY/WX    TMP DP  RH WIND       PRES   REMARKS
DURANGO        CLOUDY    35  30  82 SW9       29.86R WCI  28
CORTEZ         CLOUDY    36  35  96 W6        29.91S
PAGOSA SPRINGS LGT SNOW  33  33 100 CALM      29.87S
TELLURIDE      LGT SNOW  29  29 100 W6        29.92F WCI  23
WOLF CREEK PAS CLOUDY    23  23 100 N5        29.95S WCI  17
$$

COZ009-010-012-014-032>034-037-058>063-160800-
...CENTRAL COLORADO...

CITY           SKY/WX    TMP DP  RH WIND       PRES   REMARKS
ASPEN          CLOUDY    28  27  96 NW5       29.91S FOG     WCI  23
BUENA VISTA    LGT SNOW  30  28  92 CALM      29.89S
COPPER MTN     LGT SNOW  27  21  80 MISG      29.94F
BERTHOUD PASS  NOT AVBL
COTTONWOOD PAS FLURRIES  32  30  93 CALM      29.91S
GUNNISON       LGT SNOW  22  20  92 CALM      29.91S FOG
KREMMLING      CLOUDY    25  21  86 CALM      29.97S
LEADVILLE      LGT SNOW  25  23  92 CALM      29.89F FOG
MONARCH PASS   CLOUDY    23  21  93 MISG      30.01S
SALIDA         CLOUDY    33  32  96 CALM      29.97S
SUNLIGHT       CLOUDY    23  21  93 N3        29.98S FOG
WILKERSON PASS CLOUDY    25  23  93 NE8       29.94F FOG     WCI  16
$$

COZ069>075-160800-
...SAN LUIS VALLEY/SANGRE DE CRISTO MOUNTAINS...

CITY           SKY/WX    TMP DP  RH WIND       PRES   REMARKS
ALAMOSA        LGT SNOW  31  31 100 CALM      29.85S FOG
LA VETA PASS   CLOUDY    23  21  93 SW5       29.88F WCI  17
SAGUACHE       MIX PCPN  32  30  93 CALM      29.86S
$$

COZ035-036-038>040-160800-
...NORTHERN COLORADO FRONT RANGE...

CITY           SKY/WX    TMP DP  RH WIND       PRES   REMARKS
DENVER INTL AP CLOUDY    32  23  69 W8        29.96R WCI  25
DMNS CITY PARK   N/A     31  26  79 MISG      29.97S
AURORA         FLURRIES  30  29  99 NW7       29.96S WCI  23
FRONT RANGE AP CLOUDY    32  28  86 NW7       29.96S WCI  26
ERIE MUNI ARPT LGT SNOW  32  29  90 W5        29.98R WCI  27
BOULDER MUN AP LGT SNOW  32  30  93 CALM      29.97R
CENTENNIAL     LGT SNOW  29  27  92 NW7       29.95S FOG     WCI  22
BROOMFIELD     LGT SNOW  32  28  86 N6        29.97S WCI  26
FORT COLLINS   MOCLDY    34  28  80 N3        29.98R
LONGMONT       LGT SNOW  34  29  82 CALM      30.00R
$$

COZ041-046-047-076>085-087-088-160800-
...PIKES PEAK/PALMER DIVIDE AND SOUTHERN FOOTHILLS...

CITY           SKY/WX    TMP DP  RH WIND       PRES   REMARKS
COLO. SPRINGS  FLURRIES  33  27  78 NW15      29.90F WCI  23
A. F. ACADEMY  FLURRIES  31  27  87 N16       29.89F WCI  19
SCHRIEVER AFB  NOT AVBL
ELLICOTT       CLOUDY   N/A N/A N/A N9        29.88F
FALCON         CLOUDY    31  26  82 N13G18    29.89F FOG     WCI  21
FORT CARSON    LGT SNOW  32  30  93 E3        29.90F VSB 1
LIMON          CLOUDY    27  25  92 N15       29.92F WCI  15
MONUMENT HILL  LGT SNOW  27  27 100 NW12      29.93S WCI  16
TRINIDAD       LGT SNOW  31  29  92 W6        29.88F VSB 3/4 WCI  25
$$

COZ042>045-048>051-090-091-160800-
...NORTHEAST COLORADO...

CITY           SKY/WX    TMP DP  RH WIND       PRES   REMARKS
GREELEY ARPT   CLOUDY    35  21  56 N13       29.99R WCI  26
AKRON          LGT SNOW  27  25  92 N10       29.94F FOG     WCI  17
BURLINGTON     FRZ RAIN  31  29  92 N12       29.92F WCI  22
WRAY           CLOUDY   N/A N/A N/A N3        29.97F FOG
STERLING       LGT SNOW  30  30 100 CALM      29.97S
HOLYOKE        CLOUDY    34  32  93 NW5       29.97F FOG     WCI  30
FORT MORGAN    CLOUDY    29  28  93 CALM      29.98S
$$

COZ086-089-092>099-160800-
...SOUTHEAST COLORADO...

CITY           SKY/WX    TMP DP  RH WIND       PRES   REMARKS
PUEBLO         SNOW      33  31  92 E3        29.91F VSB 1/2
LA JUNTA       LGT SNOW  32  30  92 NW6       29.90F FOG     WCI  26
LAMAR          FRZ RAIN  32  31  96 N3        29.89F FOG
SPRINGFIELD      N/A     30  30 100 N17       29.85F WCI  18
$$




USA.gov is the U.S. government's official web portal to all federal, state and local government web resources and services.